User: anonymous   Login
Location: Caltech
(34.1382°N, 118.1253°W)
Time: 07:39:11
(UTC-08:00)
Language:

AO-27 - Orbit

View from above orbital plane
View from above orbital plane
View from above satellite
View from above satellite

Ground track
Ground track

The orbit data is extracted from the following two-line orbital elements,

1 22825U 93061C   16337.92592033  .00000005  00000-0  19636-4 0  9995
2 22825  98.7841 295.4099 0008325 177.5823 182.5400 14.29978438209351
Epoch (UTC): 02 December 2016 22:13:19
Eccentricity: 0.0008325
inclination: 98.7841°
perigee height: 786 km
apogee height: 798 km
right ascension of ascending node: 295.4099°
argument of perigee: 177.5823°
revolutions per day: 14.29978438
mean anomaly at epoch: 182.5400°
orbit number at epoch: 20935

The dashed part of the orbit path shows where the satellite is in the earth's shadow,  

DLR